Date,TemperatureHighF,TemperatureAvgF,TemperatureLowF,DewpointHighF,DewpointAvgF,DewpointLowF,HumidityHigh,HumidityAvg,HumidityLow,PressureMaxIn,PressureMinIn,WindSpeedMaxMPH,WindSpeedAvgMPH,GustSpeedMaxMPH,PrecipitationSumIn
2012-11-19,58.8,54.5,52.0,47.3,45.0,41.8,76,70,64,29.13,28.87,25,14,34,0.13
2012-11-20,63.9,53.9,48.6,50.1,43.9,37.7,77,69,61,29.16,28.91,24,9,32,0.02
2012-11-21,61.0,47.5,43.7,45.5,38.4,36.1,77,71,49,29.28,29.16,12,3,18,0.00
2012-11-22,54.5,48.8,41.7,46.3,40.9,36.0,84,74,64,29.19,28.86,24,9,36,0.32
2012-11-23,51.1,44.1,39.9,37.9,35.8,33.5,83,73,57,29.41,28.90,20,9,27,0.08
2012-11-24,48.2,40.1,35.1,37.8,33.4,29.2,84,77,62,29.51,29.21,12,2,19,0.01
2012-11-25,43.5,41.8,38.5,40.2,38.0,35.2,88,86,84,29.21,29.00,14,3,21,0.22
2012-11-26,45.5,43.5,39.0,37.5,36.0,34.4,87,75,69,29.39,29.19,15,6,20,0.00
2012-11-27,45.7,43.4,39.7,36.1,34.2,31.6,74,70,66,29.66,29.38,14,5,20,0.00
2012-11-28,49.5,39.7,34.2,32.1,28.4,23.8,75,64,45,29.68,29.64,11,4,16,0.00
2012-11-29,48.2,35.6,32.5,31.0,25.5,23.3,75,67,47,29.66,29.42,6,2,8,0.00
2012-11-30,49.1,36.6,30.0,32.8,28.3,23.7,84,72,52,29.47,29.40,6,2,10,0.17
2012-12-1,45.9,37.7,33.6,32.0,27.5,23.3,84,67,50,29.56,29.44,16,4,24,0.01
2012-12-2,49.5,35.9,32.0,31.1,26.0,23.3,76,68,47,29.57,29.35,8,2,11,0.00
2012-12-3,44.1,37.7,33.1,36.8,32.2,26.7,88,81,72,29.35,29.03,16,4,25,0.07
2012-12-4,44.2,37.2,34.5,35.8,31.8,25.2,85,81,68,29.30,29.04,11,3,14,0.04
2012-12-5,41.9,34.0,30.0,29.5,24.0,19.7,75,67,55,29.56,29.29,17,4,21,0.01
2012-12-6,40.5,37.5,30.6,35.2,29.7,17.6,87,74,51,29.52,28.83,27,9,36,0.12
2012-12-7,44.6,39.5,33.6,34.9,31.3,27.5,85,72,66,29.69,28.92,16,4,21,0.05
2012-12-8,49.3,42.7,35.2,44.0,35.9,27.5,85,77,69,29.73,29.48,21,8,30,0.01
2012-12-9,50.0,44.3,40.1,41.0,33.1,30.3,79,65,52,29.74,29.43,20,6,27,0.00
2012-12-10,47.5,38.1,32.5,32.1,28.9,24.4,75,69,54,30.04,29.74,10,3,14,0.00
2012-12-11,45.7,32.8,28.4,28.7,24.2,21.3,77,71,50,30.05,29.82,4,1,6,0.00
2012-12-12,37.4,32.5,29.5,31.5,26.4,23.4,86,78,68,29.83,29.41,7,1,9,0.00
2012-12-13,42.6,34.0,31.3,32.6,26.0,16.9,85,73,54,29.41,29.08,3,0,5,0.00
2012-12-14,42.8,38.0,31.8,38.7,31.5,21.6,88,78,64,29.08,28.23,12,1,14,0.17
2012-12-15,49.3,44.2,38.7,40.3,38.2,34.8,87,79,71,28.80,28.24,20,9,29,0.02
2012-12-16,53.2,44.1,39.0,40.2,37.2,34.5,86,77,60,28.93,28.80,12,3,16,0.00
2012-12-17,46.0,41.6,37.6,40.7,37.6,33.5,88,85,80,29.29,28.90,5,1,8,0.01
2012-12-18,54.5,43.4,39.9,44.5,38.2,-0.9,87,83,10,29.70,29.33,75,1,91,0.01
2012-12-19,45.0,42.7,38.1,37.3,35.4,34.1,87,76,66,29.67,29.45,7,1,14,0.02
2012-12-20,44.1,42.6,41.4,37.5,36.3,35.1,82,78,74,29.46,29.17,6,2,12,0.13
2012-12-21,42.4,41.4,40.8,37.9,37.1,36.3,87,84,81,29.47,29.22,3,0,6,0.14
2012-12-22,45.1,43.3,40.8,41.2,38.8,36.5,86,84,79,29.43,28.78,5,0,9,0.22
2012-12-23,53.2,48.0,45.1,47.4,41.4,38.3,88,78,64,29.02,28.50,30,10,40,0.24
2012-12-24,47.1,44.2,39.9,40.1,37.7,35.2,85,78,73,29.02,28.91,21,6,28,0.00
2012-12-25,48.2,42.3,38.1,38.9,35.6,34.0,86,77,69,28.84,28.67,16,6,25,0.01
2012-12-26,43.3,41.2,38.1,38.2,36.0,34.2,88,82,74,28.98,28.82,12,3,22,0.24
2012-12-27,40.6,38.6,36.1,35.5,32.6,27.6,87,79,70,29.42,28.84,11,2,14,0.04
2012-12-28,55.2,49.2,40.6,47.0,41.5,33.2,81,75,70,29.39,28.71,29,12,39,0.31
2012-12-29,55.4,46.9,41.2,47.1,37.9,30.8,79,71,64,28.74,28.67,24,12,36,0.12
2012-12-30,52.2,41.9,35.2,45.0,34.8,28.8,82,76,69,28.90,28.72,24,12,35,0.14
2012-12-31,52.5,47.1,37.8,45.0,38.9,31.4,80,73,66,28.88,28.57,30,13,40,0.20
2013-1-1,47.7,41.9,38.5,36.9,34.4,31.6,79,74,65,29.49,28.87,18,8,26,0.00